AirNav   Air Wisconsin Up To $57,000 Bonus
 
 1619 users online  

12J Brewton Municipal Airport
Brewton, Alabama, USA

GOING TO BREWTON?


FAA INFORMATION EFFECTIVE 25 MARCH 2021

Location

FAA Identifier: 12J
Lat/Long: 31-03-02.5610N 087-04-02.1600W
31-03.042683N 087-04.036000W
31.0507114,-87.0672667
(estimated)
Elevation: 98.8 ft. / 30.1 m (surveyed)
Variation: 01W (2000)
From city: 3 miles S of BREWTON, AL
Time zone: UTC -5 (UTC -6 during Standard Time)
Zip code: 36426

Airport Operations

Airport use: Open to the public
Activation date: 06/1944
Control tower: no
ARTCC: JACKSONVILLE CENTER
FSS: ANNISTON FLIGHT SERVICE STATION
NOTAMs facility: ANB (NOTAM-D service available)
Attendance: MON-FRI 0730-1700, ALL SAT 0830-1700
AFTER HRS CALL 251-867-9997.
Wind indicator: lighted
Segmented circle: yes
Lights: ACTVT PAPI RWY 12 & 30; MIRL RWY 12/30 - CTAF.
Beacon: white-green (lighted land airport)
Operates sunset to sunrise.

Airport Communications

CTAF/UNICOM: 122.725
WX AWOS-3PT: 119.325 (251-809-2987)
PENSACOLA APPROACH: 127.35
PENSACOLA DEPARTURE: 127.35
WX ASOS at NSE (20 nm S): PHONE 850-623-7241

Nearby radio navigation aids

VOR radial/distance  VOR name  Freq  Var
CEWr301/24.1CRESTVIEW VORTAC115.9003E
MVCr145/28.6MONROEVILLE VORTAC116.8004E
NUNr021/(37.4)SAUFLEY VOR108.8001E

 
NDB name  Hdg/Dist  Freq  Var  ID
PICKENS011/37.332602WPKZ .--. -.- --..
JUDD248/37.926402WJUY .--- ..- -.--

Airport Services

Fuel available: 100LL JET-A+
Parking: hangars and tiedowns
Airframe service: MAJOR
Powerplant service: MAJOR
Bottled oxygen: NONE
Bulk oxygen: NONE

Runway Information

Runway 6/24

Dimensions: 5136 x 150 ft. / 1565 x 46 m
Surface: asphalt, in fair condition
Weight bearing capacity: 
Single wheel: 40.0
Double wheel: 60.0
Operational restrictions: MARKINGS FADED.
RUNWAY 6  RUNWAY 24
Latitude: 31-02.998458N31-03.384532N
Longitude: 087-04.547052W087-03.671163W
Elevation: 80.9 ft.83.3 ft.
Traffic pattern: leftleft
Runway heading: 064 magnetic, 063 true244 magnetic, 243 true
Markings: nonprecision, in fair conditionnonprecision, in fair condition
Touchdown point: yes, no lightsyes, no lights
Obstructions: 6 ft. tree, 245 ft. from runway, 17 ft. left of centerline, 6:1 slope to clear91 ft. trees, 1279 ft. from runway, 175 ft. right of centerline, 11:1 slope to clear

Runway 12/30

Dimensions: 5001 x 150 ft. / 1524 x 46 m
Surface: asphalt, in fair condition
Weight bearing capacity: 
Single wheel: 40.0
Double wheel: 60.0
Runway edge lights: medium intensity
Runway edge markings: FIXED DISTANCE MARKER 500 FT FROM RWY END.
Operational restrictions: MARKINGS FADED.
RUNWAY 12  RUNWAY 30
Latitude: 31-03.095260N31-02.684430N
Longitude: 087-04.376370W087-03.545472W
Elevation: 82.1 ft.98.8 ft.
Traffic pattern: leftleft
Runway heading: 121 magnetic, 120 true301 magnetic, 300 true
Markings: nonprecision, in fair conditionnonprecision, in fair condition
Visual slope indicator: 2-light PAPI on left (3.25 degrees glide path)
UNUSBL BYD 6 DEG LEFT OF CNTRLN.
2-light PAPI on left (3.50 degrees glide path)
Touchdown point: yes, no lightsyes, no lights
Obstructions: 59 ft. trees, 1272 ft. from runway, 88 ft. left of centerline, 18:1 slope to clear
7 FT TREE LCTD 150 FT FM PAVEMENT END RWY 12, 7 FT RIGHT OF CNTRLN.
7 ft. tree, 222 ft. from runway, 15 ft. right of centerline, 3:1 slope to clear

Airport Ownership and Management from official FAA records

Ownership: Publicly-owned
Owner: CITY OF BREWTON
PO BOX 368
BREWTON, AL 36427
Phone 251-867-3281
Manager: EARL LAMBERT
205 AIRPORT DRIVE
BREWTON, AL 36426
Phone 251-867-9997

Airport Operational Statistics

Aircraft based on the field: 24
Single engine airplanes: 17
Multi engine airplanes: 2
Helicopters: 3
Gliders airplanes: 2
    
Aircraft operations: avg 453/day *
91% military
4% transient general aviation
4% local general aviation
1% air taxi
* for 12-month period ending 30 June 2020

Additional Remarks

MIL TRNG ACFT MONTR UNICOM AND YIELD TO ALL CIV OPNS.
USN PILOT TRNG FM WHITING FLD.
MIL ACFT RQR PRIOR CDN WITH NAS WHITING FLD, DSN 868-7654, C850-623-7645.
FOR CD CTC PENSACOLA APCH AT 850-266-6884 OR 850-266-6885.

Instrument Procedures

NOTE: All procedures below are presented as PDF files. If you need a reader for these files, you should download the free Adobe Reader.

NOT FOR NAVIGATION. Please procure official charts for flight.
FAA instrument procedures published for use from 25 March 2021 at 0901Z to 22 April 2021 at 0900z.

 
IAPs - Instrument Approach Procedures
RNAV (GPS) RWY 06   download (194KB)
RNAV (GPS) RWY 12   download (261KB)
RNAV (GPS) RWY 24   download (198KB)
RNAV (GPS) RWY 30   download (265KB)
VOR/DME RWY 30   download (237KB)
NOTE: Special Take-Off Minimums/Departure Procedures apply   download (189KB)

Other nearby airports with instrument procedures:

0R1 - Atmore Municipal Airport (20 nm W)
KNSE - Whiting Field Naval Air Station North (20 nm S)
KNDZ - Whiting Field Naval Air Station South (21 nm S)
KGZH - Evergreen Regional Airport/Middleton Field (22 nm N)
2R4 - Peter Prince Field Airport (25 nm S)
 
Loc | Ops | Rwys | IFR | FBO | Links
Com | Nav | Svcs | Stats | Notes
Area around 12J (Brewton Municipal Airport)
 
Road maps at: MapQuest Bing Google
 
Aerial photo
WARNING: Photo may not be current or correct
Aerial photo of 12J (Brewton Municipal Airport)
Photo by Ryan Hegerty, 11-Jan-2004

Do you have a better or more recent aerial photo of Brewton Municipal Airport that you would like to share? If so, please send us your photo.

 
Sectional chart

 
Airport distance calculator
Flying to Brewton Municipal Airport? Find the distance to fly.

From to 12J

Sunrise and sunset
Times for 21-Apr-2021
 Local
(UTC-5)
 Zulu
(UTC)
Morning civil twilight05:5010:50
Sunrise06:1511:15
Sunset19:1900:19
Evening civil twilight19:4400:44

Current date and time
Zulu (UTC)  21-Apr-2021 20:30:19
Local (UTC-5)  21-Apr-2021 15:30:19
 
METAR
KNSE 
20nm S 
211856Z 33014G20KT 10SM CLR 21/08 A3008 RMK SLP164 T02110078
KNDZ 
21nm S 
211956Z 34015G25KT 10SM CLR 22/08 A3007 RMK SLP167 T02220078
KGZH 
22nm N 
211953Z AUTO 10SM CLR 19/03 A3011 RMK AO2 SLP195 T01890028
KCEW 
33nm SE 
211953Z AUTO 34016G25KT 10SM CLR 23/07 A3006 RMK AO2 SLP178 T02280072
KPNS 
35nm S 
211953Z 35015G23KT 10SM CLR 22/08 A3006 RMK AO2 SLP182 T02220078
K79J 
38nm NE 
211956Z AUTO 32016G23KT 10SM CLR 22/04 A3007 RMK AO2 SLP181 T02170044
KEGI 
38nm SE 
211956Z AUTO 34010G17KT 10SM CLR 23/08 A3004 RMK AO2 SLP172 T02270080 $
K0J4 
39nm E 
211958Z AUTO 34008G20KT 10SM CLR 21/06 A3008 RMK AO2 SLP182 T02060056 $
TAF
KNSE 
20nm S 
2115/2215 34012G18KT 9999 SKC QNH3002INS TEMPO 2115/2121 33014G23KT FM220100 36006KT 9999 SKC QNH3006INS FM220700 04008KT 9999 SKC QNH3010INS T21/2120Z T06/2212Z FN20071
NOTAMs
Click for the latest NOTAMs
NOTAMs are issued by the DoD/FAA and will open in a separate window not controlled by AirNav.

 

 
 

FBO, Fuel Providers, and Aircraft Ground Support

  
 Business Name 
 
 Contact 
 
 Services / Description 
 
Fuel Prices
 
Comments
  
Aviation Specialists LLC 251-867-9997
no information available

If you are affiliated with Aviation Specialists LLC and would like to show here your services, contact info, web link, logo, and more, click here
100LL Jet A
FS $4.78 $3.90 
 Updated 14-Apr-2021
 
   write
FS=Full service
Update Fuel Prices
 

Would you like to see your business listed on this page?

 If your business provides an interesting product or service to pilots, flight crews, aircraft, or users of the Brewton Municipal Airport, you should consider listing it here.  To start the listing process, click on the button below
 
Add a business
 

Other Pages about Brewton Municipal Airport

www.brewtonchamber.com/Resources.htm#airport
 
Update a link
 
Copyright © AirNav, LLC. All rights reserved. Privacy Policy  Contact